Find Starlink 34163

NORAD ID: 64008 Int'l Des: 2025-101 Owner: SPXS Country: US Constellation: starlink operational
LEOCIRCULAR

リアルタイム位置

3D地球を読み込み中...

Starlink 34163について

説明を読み込み中...

次回通過

Passes for default location (London). Set your location on the main map for personalized predictions.

高度履歴

Loading altitude history...

軌道要素

1 64008U 25101Q 26107.13916034 .00014102 00000-0 52117-3 0 9997
2 64008 43.0008 140.9897 0002563 290.2070 69.8506 15.27567556 52931
Epoch: Apr 17, 2026 • Age: 16 hours

現在のステータス

高度 487.6 km
速度 7.63 km/s
衛星直下点 42.86°N, 82.05°E
打ち上げ日 May 14, 2025
運用期間 0.9 years
タイプ internet

技術仕様

分類 Payload
質量 575.00 kg
乾燥質量 530.00 kg
総質量 575.00 kg
長さ 0.30 m
直径 4.10 m
スパン 29.00 m
形状 Box + pan
製造者 SPXS
バスタイプ Starlink V2MO
フェーズステータス In Orbit
所有者/国 SPXS/US

Most Searched